Location: Killam
(52.7910°N, 111.8608°W)
Time: 15:05:20
(UTC+00:00)

Injun/Solrad 3 - Pass Details

Date: 20 February 2026
Orbit: 872 x 984 km, 66.8° (Epoch: 7 March)

Event Time Altitude Azimuth Distance (km) Brightness Sun altitude
Rises 01:17:27 0° 318° (NW) 3,545 11.4 -5.2°
Reaches altitude 10° 01:20:04 10° 325° (NW) 2,618 10.6 -5.6°
Maximum altitude 01:25:54 45° 37° (NE) 1,255 8.3 -6.4°
Drops below altitude 10° 01:31:53 10° 110° (ESE) 2,683 9.8 -7.3°
Enters shadow 01:33:42 - 115° (ESE) 3,324 10.3 -7.6°
